When you browse on this site, cookies collect data to enhance your experience and personalize the content and advertising you see.
Visit our Privacy Policy to learn more. By continuing to use the site, you agree to this use of cookies and data.
  • în România
  • Lista ţărilor
  • Pe 7 zile
  • Temperatura apei
  • Hartă satelitară
  • Meteo pe hartă
  • Widget-uri
  • user-avatar
    Intrare

    Meteo pe oră la Guanare

    Astăzi, 22 Ianuarie, Marţi

    Timp Temperatura Precipitaţii Vânt Presiune Umiditate
    00:00 +27°C° 0 mm 1 m/s 743 mmHg 61%
    01:00 +26°C° 0 mm 1 m/s 743 mmHg 62%
    02:00 +26°C° 0 mm 1 m/s 743 mmHg 61%
    03:00 +26°C° 0 mm 1 m/s 743 mmHg 60%
    04:00 +26°C° 0 mm 1 m/s 743 mmHg 59%
    05:00 +27°C° 0 mm 1 m/s 744 mmHg 60%
    06:00 +27°C° 0 mm 1 m/s 744 mmHg 60%
    07:00 +27°C° 0 mm 1 m/s 745 mmHg 61%
    08:00 +28°C° 0 mm 1 m/s 745 mmHg 57%
    09:00 +30°C° 0 mm 1 m/s 745 mmHg 53%
    10:00 +31°C° 0 mm 2 m/s 745 mmHg 49%
    11:00 +32°C° 0 mm 2 m/s 744 mmHg 46%
    12:00 +34°C° 0 mm 2 m/s 744 mmHg 43%
    13:00 +35°C° 0 mm 2 m/s 743 mmHg 40%
    14:00 +35°C° 0 mm 2 m/s 742 mmHg 39%
    15:00 +35°C° 0 mm 2 m/s 742 mmHg 38%
    16:00 +35°C° 0 mm 2 m/s 741 mmHg 37%
    17:00 +32°C° 0 mm 2 m/s 741 mmHg 42%
    18:00 +30°C° 0 mm 2 m/s 742 mmHg 47%
    19:00 +28°C° 0 mm 2 m/s 742 mmHg 52%
    20:00 +27°C° 0 mm 1 m/s 742 mmHg 53%
    21:00 +27°C° 0 mm 1 m/s 743 mmHg 54%
    22:00 +26°C° 0 mm 1 m/s 743 mmHg 54%
    23:00 +26°C° 0 mm 1 m/s 743 mmHg 54%

    Mâine, 23 Ianuarie, Miercuri

    Timp Temperatura Precipitaţii Vânt Presiune Umiditate
    00:00 +26°C° 0 mm 1 m/s 743 mmHg 53%
    01:00 +26°C° 0 mm 1 m/s 743 mmHg 53%
    02:00 +26°C° 0 mm 1 m/s 743 mmHg 55%
    03:00 +25°C° 0 mm 1 m/s 743 mmHg 58%
    04:00 +25°C° 0 mm 1 m/s 743 mmHg 60%
    05:00 +25°C° 0 mm 1 m/s 744 mmHg 60%
    06:00 +25°C° 0 mm 1 m/s 744 mmHg 60%
    07:00 +26°C° 0 mm 1 m/s 745 mmHg 60%
    08:00 +28°C° 0 mm 1 m/s 745 mmHg 54%
    09:00 +30°C° 0 mm 2 m/s 745 mmHg 49%
    10:00 +32°C° 0 mm 2 m/s 746 mmHg 43%
    11:00 +34°C° 0 mm 2 m/s 745 mmHg 42%
    12:00 +35°C° 0 mm 2 m/s 744 mmHg 40%
    13:00 +35°C° 0 mm 2 m/s 743 mmHg 38%
    14:00 +35°C° 0 mm 2 m/s 742 mmHg 38%
    15:00 +35°C° 0 mm 2 m/s 741 mmHg 38%
    16:00 +35°C° 0 mm 2 m/s 741 mmHg 38%
    17:00 +32°C° 0 mm 2 m/s 741 mmHg 43%
    18:00 +30°C° 0 mm 2 m/s 741 mmHg 47%
    19:00 +28°C° 0 mm 2 m/s 741 mmHg 52%
    20:00 +28°C° 0 mm 2 m/s 742 mmHg 50%
    21:00 +27°C° 0 mm 2 m/s 742 mmHg 48%
    22:00 +27°C° 0 mm 2 m/s 743 mmHg 47%
    23:00 +27°C° 0 mm 2 m/s 743 mmHg 49%

    Poimâine, 24 Ianuarie, Joi

    Timp Temperatura Precipitaţii Vânt Presiune Umiditate
    00:00 +26°C° 0 mm 2 m/s 743 mmHg 52%
    01:00 +26°C° 0 mm 2 m/s 743 mmHg 55%
    02:00 +26°C° 0 mm 1 m/s 742 mmHg 57%
    03:00 +26°C° 0 mm 1 m/s 742 mmHg 59%
    04:00 +25°C° 0 mm 1 m/s 742 mmHg 62%
    05:00 +25°C° 0 mm 1 m/s 743 mmHg 61%
    06:00 +26°C° 0 mm 1 m/s 743 mmHg 61%
    07:00 +26°C° 0 mm 1 m/s 744 mmHg 61%
    08:00 +28°C° 0 mm 1 m/s 744 mmHg 56%
    09:00 +30°C° 0 mm 2 m/s 744 mmHg 51%
    10:00 +32°C° 0 mm 2 m/s 745 mmHg 46%
    11:00 +34°C° 0 mm 2 m/s 744 mmHg 43%
    12:00 +35°C° 0 mm 2 m/s 743 mmHg 41%
    13:00 +34°C° 0 mm 1 m/s 742 mmHg 38%
    14:00 +34°C° 0 mm 1 m/s 741 mmHg 37%
    15:00 +34°C° 0 mm 1 m/s 740 mmHg 37%
    16:00 +35°C° 0 mm 1 m/s 740 mmHg 36%
    17:00 +32°C° 0 mm 1 m/s 740 mmHg 41%
    18:00 +30°C° 0 mm 1 m/s 741 mmHg 46%
    19:00 +28°C° 0 mm 1 m/s 741 mmHg 51%
    20:00 +28°C° 0 mm 1 m/s 742 mmHg 52%
    21:00 +27°C° 0 mm 2 m/s 742 mmHg 53%
    22:00 +27°C° 0 mm 2 m/s 743 mmHg 54%
    23:00 +27°C° 0 mm 2 m/s 742 mmHg 55%

    25 Ianuarie, Vineri

    Timp Temperatura Precipitaţii Vânt Presiune Umiditate
    00:00 +26°C° 0 mm 1 m/s 742 mmHg 55%
    01:00 +26°C° 0 mm 1 m/s 742 mmHg 55%
    02:00 +26°C° 0 mm 1 m/s 742 mmHg 57%
    03:00 +25°C° 0 mm 1 m/s 742 mmHg 59%
    04:00 +25°C° 0 mm 1 m/s 742 mmHg 61%
    05:00 +25°C° 0 mm 1 m/s 742 mmHg 61%
    06:00 +26°C° 0 mm 1 m/s 743 mmHg 61%
    07:00 +26°C° 0 mm 1 m/s 744 mmHg 61%
    08:00 +28°C° 0 mm 1 m/s 744 mmHg 56%
    09:00 +30°C° 0 mm 2 m/s 744 mmHg 51%
    10:00 +32°C° 0 mm 2 m/s 744 mmHg 47%
    11:00 +34°C° 0 mm 2 m/s 743 mmHg 43%
    12:00 +35°C° 0 mm 2 m/s 742 mmHg 39%
    13:00 +37°C° 0 mm 2 m/s 741 mmHg 35%
    14:00 +37°C° 0 mm 2 m/s 740 mmHg 35%
    15:00 +36°C° 0 mm 2 m/s 739 mmHg 35%
    16:00 +36°C° 0 mm 2 m/s 739 mmHg 34%
    17:00 +34°C° 0 mm 2 m/s 739 mmHg 39%
    18:00 +31°C° 0 mm 1 m/s 740 mmHg 44%
    19:00 +29°C° 0 mm 1 m/s 740 mmHg 49%
    20:00 +29°C° 0 mm 1 m/s 740 mmHg 51%
    21:00 +28°C° 0 mm 1 m/s 741 mmHg 53%
    22:00 +28°C° 0 mm 1 m/s 742 mmHg 55%
    23:00 +27°C° 0 mm 1 m/s 741 mmHg 57%

    26 Ianuarie, Sâmbătă

    Timp Temperatura Precipitaţii Vânt Presiune Umiditate
    00:00 +27°C° 0 mm 1 m/s 741 mmHg 58%
    01:00 +26°C° 0 mm 1 m/s 741 mmHg 60%
    02:00 +26°C° 0 mm 1 m/s 741 mmHg 62%
    03:00 +25°C° 0 mm 1 m/s 741 mmHg 63%
    04:00 +25°C° 0 mm 1 m/s 741 mmHg 64%
    05:00 +25°C° 0 mm 1 m/s 742 mmHg 64%
    06:00 +26°C° 0 mm 1 m/s 743 mmHg 63%
    07:00 +26°C° 0 mm 1 m/s 743 mmHg 62%
    08:00 +28°C° 0 mm 1 m/s 743 mmHg 55%
    09:00 +30°C° 0 mm 2 m/s 743 mmHg 48%
    10:00 +34°C° 0 mm 2 m/s 743 mmHg 41%
    11:00 +35°C° 0 mm 2 m/s 743 mmHg 38%
    12:00 +36°C° 0 mm 2 m/s 742 mmHg 35%
    13:00 +37°C° 0 mm 1 m/s 741 mmHg 32%
    14:00 +36°C° 0 mm 1 m/s 740 mmHg 33%
    15:00 +36°C° 0 mm 1 m/s 739 mmHg 33%
    16:00 +36°C° 0 mm 1 m/s 738 mmHg 33%
    17:00 +34°C° 0 mm 1 m/s 739 mmHg 38%
    18:00 +32°C° 0 mm 1 m/s 739 mmHg 43%
    19:00 +30°C° 0 mm 1 m/s 739 mmHg 48%
    20:00 +29°C° 0 mm 1 m/s 740 mmHg 49%
    21:00 +29°C° 0 mm 1 m/s 740 mmHg 50%
    22:00 +28°C° 0 mm 1 m/s 741 mmHg 51%
    23:00 +28°C° 0 mm 1 m/s 741 mmHg 53%

    27 Ianuarie, Duminică

    Timp Temperatura Precipitaţii Vânt Presiune Umiditate
    00:00 +27°C° 0 mm 1 m/s 740 mmHg 55%
    01:00 +26°C° 0 mm 1 m/s 740 mmHg 57%
    02:00 +26°C° 0 mm 1 m/s 740 mmHg 58%
    03:00 +26°C° 0 mm 1 m/s 740 mmHg 59%
    04:00 +25°C° 0 mm 1 m/s 740 mmHg 60%
    05:00 +25°C° 0 mm 1 m/s 741 mmHg 59%
    06:00 +26°C° 0 mm 1 m/s 741 mmHg 59%
    07:00 +26°C° 0 mm 1 m/s 742 mmHg 58%
    08:00 +28°C° 0 mm 1 m/s 742 mmHg 53%
    09:00 +30°C° 0 mm 2 m/s 742 mmHg 47%
    10:00 +34°C° 0 mm 2 m/s 743 mmHg 41%
    11:00 +35°C° 0 mm 2 m/s 742 mmHg 39%
    12:00 +36°C° 0 mm 2 m/s 741 mmHg 36%
    13:00 +37°C° 0 mm 2 m/s 740 mmHg 33%
    14:00 +37°C° 0 mm 2 m/s 739 mmHg 33%
    15:00 +37°C° 0 mm 2 m/s 739 mmHg 33%
    16:00 +37°C° 0 mm 2 m/s 738 mmHg 33%
    17:00 +34°C° 0 mm 1 m/s 738 mmHg 38%
    18:00 +32°C° 0 mm 1 m/s 739 mmHg 44%
    19:00 +30°C° 0 mm 1 m/s 739 mmHg 49%
    20:00 +29°C° 0 mm 1 m/s 740 mmHg 51%
    21:00 +28°C° 0 mm 1 m/s 740 mmHg 53%
    22:00 +28°C° 0 mm 1 m/s 741 mmHg 54%
    23:00 +27°C° 0 mm 1 m/s 741 mmHg 56%
    Arată mai mult